When you browse on this site, cookies collect data to enhance your experience and personalize the content and advertising you see.
Visit our Privacy Policy to learn more. By continuing to use the site, you agree to this use of cookies and data.
  • In Switzerland
  • List of Countries
  • For 7 days
  • Water Temperature
  • Satellite Maps
  • Weather Map
  • Weather Widgets
  • user-avatar
    Login

    Hourly Weather Kitzbuhel

    Today, 23 May, Thursday

    Time Temperature Precipitation Wind Pressure Humidity
    00:00 +7°C° 0 mm 1 mps 678 mmHg 97%
    01:00 +7°C° 0 mm 1 mps 678 mmHg 96%
    02:00 +7°C° 0 mm 1 mps 678 mmHg 96%
    03:00 +7°C° 0 mm 1 mps 678 mmHg 95%
    04:00 +7°C° 0 mm 1 mps 678 mmHg 94%
    05:00 +8°C° 0 mm 1 mps 678 mmHg 92%
    06:00 +9°C° 0 mm 1 mps 678 mmHg 90%
    07:00 +9°C° 0 mm 0 mps 678 mmHg 87%
    08:00 +11°C° 0 mm 1 mps 678 mmHg 82%
    09:00 +12°C° 0 mm 1 mps 678 mmHg 77%
    10:00 +13°C° 0 mm 1 mps 678 mmHg 72%
    11:00 +15°C° 0 mm 1 mps 678 mmHg 66%
    12:00 +16°C° 0 mm 1 mps 678 mmHg 59%
    13:00 +18°C° 0 mm 1 mps 678 mmHg 53%
    14:00 +17°C° 0 mm 2 mps 678 mmHg 53%
    15:00 +17°C° 0 mm 2 mps 678 mmHg 53%
    16:00 +17°C° 0 mm 2 mps 677 mmHg 53%
    17:00 +15°C° 0 mm 2 mps 677 mmHg 62%
    18:00 +13°C° 0 mm 1 mps 677 mmHg 72%
    19:00 +12°C° 0 mm 1 mps 676 mmHg 82%
    20:00 +10°C° 0 mm 1 mps 676 mmHg 86%
    21:00 +9°C° 0 mm 1 mps 677 mmHg 90%
    22:00 +7°C° 0 mm 1 mps 677 mmHg 94%
    23:00 +7°C° 0 mm 1 mps 677 mmHg 93%

    Tomorrow, 24 May, Friday

    Time Temperature Precipitation Wind Pressure Humidity
    00:00 +7°C° 0 mm 1 mps 677 mmHg 93%
    01:00 +7°C° 0 mm 1 mps 676 mmHg 92%
    02:00 +7°C° 0 mm 1 mps 676 mmHg 89%
    03:00 +7°C° 0 mm 1 mps 676 mmHg 87%
    04:00 +6°C° 0 mm 1 mps 676 mmHg 84%
    05:00 +9°C° 0 mm 1 mps 676 mmHg 75%
    06:00 +10°C° 0 mm 0 mps 676 mmHg 67%
    07:00 +12°C° 0 mm 0 mps 677 mmHg 58%
    08:00 +14°C° 0 mm 0 mps 677 mmHg 52%
    09:00 +18°C° 0 mm 1 mps 677 mmHg 46%
    10:00 +19°C° 0 mm 1 mps 677 mmHg 40%
    11:00 +20°C° 0 mm 1 mps 677 mmHg 39%
    12:00 +19°C° 0 mm 2 mps 677 mmHg 38%
    13:00 +20°C° 0 mm 2 mps 677 mmHg 37%
    14:00 +20°C° 0 mm 2 mps 676 mmHg 40%
    15:00 +19°C° 0 mm 2 mps 676 mmHg 43%
    16:00 +19°C° 0 mm 2 mps 676 mmHg 46%
    17:00 +17°C° 0 mm 2 mps 675 mmHg 57%
    18:00 +16°C° 0 mm 1 mps 675 mmHg 68%
    19:00 +14°C° 0 mm 1 mps 675 mmHg 79%
    20:00 +12°C° 0 mm 1 mps 675 mmHg 84%
    21:00 +11°C° 0 mm 1 mps 675 mmHg 88%
    22:00 +9°C° 0 mm 1 mps 675 mmHg 93%
    23:00 +9°C° 0 mm 1 mps 675 mmHg 92%

    Day after tomorrow, 25 May, Saturday

    Time Temperature Precipitation Wind Pressure Humidity
    00:00 +9°C° 0 mm 1 mps 675 mmHg 91%
    01:00 +9°C° 0 mm 1 mps 675 mmHg 90%
    02:00 +9°C° 0 mm 1 mps 675 mmHg 90%
    03:00 +9°C° 0 mm 1 mps 675 mmHg 90%
    04:00 +9°C° 0 mm 1 mps 674 mmHg 90%
    05:00 +11°C° 0 mm 1 mps 675 mmHg 83%
    06:00 +12°C° 0 mm 0 mps 675 mmHg 76%
    07:00 +14°C° 0 mm 0 mps 676 mmHg 69%
    08:00 +15°C° 0 mm 0 mps 676 mmHg 65%
    09:00 +18°C° 0 mm 1 mps 676 mmHg 60%
    10:00 +19°C° 0 mm 1 mps 677 mmHg 56%
    11:00 +19°C° 0.3 mm 1 mps 676 mmHg 58%
    12:00 +19°C° 0.3 mm 1 mps 676 mmHg 61%
    13:00 +19°C° 0.3 mm 1 mps 676 mmHg 63%
    14:00 +19°C° 0.8 mm 1 mps 676 mmHg 69%
    15:00 +18°C° 0.8 mm 1 mps 676 mmHg 75%
    16:00 +15°C° 0.8 mm 0 mps 676 mmHg 81%
    17:00 +15°C° 0.6 mm 0 mps 676 mmHg 84%
    18:00 +14°C° 0.6 mm 0 mps 675 mmHg 88%
    19:00 +13°C° 0.6 mm 0 mps 675 mmHg 92%
    20:00 +12°C° 0.2 mm 0 mps 676 mmHg 93%
    21:00 +11°C° 0.2 mm 0 mps 676 mmHg 94%
    22:00 +11°C° 0.2 mm 1 mps 676 mmHg 95%
    23:00 +11°C° 0 mm 1 mps 676 mmHg 95%

    26 May, Sunday

    Time Temperature Precipitation Wind Pressure Humidity
    00:00 +10°C° 0 mm 1 mps 676 mmHg 95%
    01:00 +10°C° 0 mm 1 mps 675 mmHg 96%
    02:00 +10°C° 0 mm 1 mps 675 mmHg 96%
    03:00 +10°C° 0 mm 1 mps 675 mmHg 96%
    04:00 +8°C° 0 mm 0 mps 675 mmHg 96%
    05:00 +11°C° 0 mm 1 mps 675 mmHg 95%
    06:00 +12°C° 0 mm 1 mps 676 mmHg 95%
    07:00 +13°C° 0 mm 1 mps 676 mmHg 94%
    08:00 +13°C° 0.1 mm 1 mps 676 mmHg 93%
    09:00 +13°C° 0.1 mm 1 mps 676 mmHg 92%
    10:00 +13°C° 0.1 mm 1 mps 676 mmHg 91%
    11:00 +15°C° 0.1 mm 1 mps 677 mmHg 82%
    12:00 +18°C° 0.1 mm 1 mps 677 mmHg 72%
    13:00 +20°C° 0.1 mm 1 mps 677 mmHg 63%
    14:00 +19°C° 0.1 mm 1 mps 677 mmHg 66%
    15:00 +18°C° 0.1 mm 2 mps 676 mmHg 69%
    16:00 +17°C° 0.1 mm 2 mps 676 mmHg 72%
    17:00 +16°C° 0.2 mm 1 mps 676 mmHg 78%
    18:00 +15°C° 0.2 mm 1 mps 676 mmHg 85%
    19:00 +14°C° 0.2 mm 1 mps 676 mmHg 92%
    20:00 +13°C° 0 mm 1 mps 676 mmHg 93%
    21:00 +12°C° 0 mm 1 mps 676 mmHg 95%
    22:00 +11°C° 0 mm 1 mps 676 mmHg 97%
    23:00 +10°C° 0 mm 1 mps 675 mmHg 97%

    27 May, Monday

    Time Temperature Precipitation Wind Pressure Humidity
    00:00 +10°C° 0 mm 1 mps 675 mmHg 96%
    01:00 +9°C° 0 mm 1 mps 675 mmHg 96%
    02:00 +9°C° 0 mm 1 mps 674 mmHg 96%
    03:00 +9°C° 0 mm 1 mps 674 mmHg 95%
    04:00 +9°C° 0 mm 1 mps 674 mmHg 95%
    05:00 +10°C° 0 mm 1 mps 674 mmHg 91%
    06:00 +11°C° 0 mm 0 mps 674 mmHg 87%
    07:00 +13°C° 0 mm 0 mps 674 mmHg 83%
    08:00 +14°C° 0 mm 0 mps 674 mmHg 78%
    09:00 +16°C° 0 mm 1 mps 674 mmHg 73%
    10:00 +18°C° 0 mm 1 mps 674 mmHg 68%
    11:00 +18°C° 0.8 mm 1 mps 674 mmHg 74%
    12:00 +16°C° 0.8 mm 1 mps 674 mmHg 79%
    13:00 +16°C° 0.8 mm 1 mps 673 mmHg 85%
    14:00 +15°C° 1.5 mm 1 mps 673 mmHg 88%
    15:00 +15°C° 1.5 mm 1 mps 672 mmHg 91%
    16:00 +13°C° 1.5 mm 0 mps 671 mmHg 94%
    17:00 +14°C° 1 mm 1 mps 671 mmHg 94%
    18:00 +13°C° 1 mm 1 mps 671 mmHg 94%
    19:00 +13°C° 1 mm 1 mps 671 mmHg 95%
    20:00 +12°C° 1.2 mm 1 mps 671 mmHg 95%
    21:00 +12°C° 1.2 mm 1 mps 671 mmHg 95%
    22:00 +11°C° 1.2 mm 1 mps 671 mmHg 96%
    23:00 +11°C° 0.8 mm 1 mps 671 mmHg 96%

    28 May, Tuesday

    Time Temperature Precipitation Wind Pressure Humidity
    00:00 +11°C° 0.8 mm 1 mps 670 mmHg 96%
    01:00 +11°C° 0.8 mm 1 mps 670 mmHg 96%
    02:00 +10°C° 0.1 mm 1 mps 670 mmHg 96%
    03:00 +9°C° 0.1 mm 0 mps 669 mmHg 96%
    04:00 +9°C° 0.1 mm 0 mps 669 mmHg 96%
    05:00 +10°C° 0.7 mm 1 mps 669 mmHg 96%
    06:00 +11°C° 0.7 mm 1 mps 670 mmHg 96%
    07:00 +11°C° 0.7 mm 1 mps 670 mmHg 97%
    08:00 +10°C° 1.8 mm 1 mps 670 mmHg 97%
    09:00 +9°C° 1.8 mm 2 mps 670 mmHg 98%
    10:00 +8°C° 1.8 mm 2 mps 670 mmHg 98%
    11:00 +10°C° 1.4 mm 1 mps 670 mmHg 97%
    12:00 +10°C° 1.4 mm 1 mps 670 mmHg 96%
    13:00 +10°C° 1.4 mm 1 mps 670 mmHg 94%
    14:00 +10°C° 0.8 mm 1 mps 670 mmHg 94%
    15:00 +10°C° 0.8 mm 1 mps 670 mmHg 94%
    16:00 +9°C° 0.8 mm 1 mps 671 mmHg 94%
    17:00 +9°C° 1.3 mm 1 mps 671 mmHg 95%
    18:00 +9°C° 1.3 mm 1 mps 671 mmHg 97%
    19:00 +8°C° 1.3 mm 1 mps 671 mmHg 98%
    20:00 +8°C° 1 mm 1 mps 672 mmHg 98%
    21:00 +8°C° 1 mm 1 mps 672 mmHg 98%
    22:00 +7°C° 1 mm 1 mps 672 mmHg 98%
    23:00 +7°C° 0.9 mm 1 mps 672 mmHg 98%
    Show more